Regional Weather Roundup
Issued by NWS

Home | Current Version | Previous Version | Text Only | Print | Product List | Glossary On
Versions: 1 2 3 4 5 6 7 8 9 10 11 12 13 14 15 16 17 18 19 20 21 22 23 24 25 26 27 28 29 30 31 32 33 34 35 36 37 38 39 40 41 42 43 44 45 46 47 48 49 50
000
ASUS43 KTOP 230508
RWRKS

WEATHER ROUNDUP FOR KANSAS
NATIONAL WEATHER SERVICE GOODLAND KS
1200 AM CDT WED APR 23 2014

NOTE:  "FAIR" INDICATES FEW OR NO CLOUDS BELOW 12,000 FEET WITH NO
SIGNIFICANT WEATHER AND/OR OBSTRUCTIONS TO VISIBILITY.

KSZ001>006-013>018-027>032-041>047-230600-
NORTHWEST KANSAS

CITY           SKY/WX    TMP DP  RH WIND       PRES   REMARKS
GOODLAND       PTCLDY    59  48  67 SE26G36   29.74F
HAYS           CLOUDY    59  37  44 SE21      29.86F
HILL CITY      CLOUDY    60  40  47 SE16G26   29.82F
RUSSELL        CLOUDY    62  31  31 S20       29.87S
$$

KSZ061>065-074>080-084>089-230600-
SOUTHWEST KANSAS

CITY           SKY/WX    TMP DP  RH WIND       PRES   REMARKS
DODGE CITY     MOCLDY    62  33  33 S22G33    29.84F
ELKHART          N/A     67  40  37 S21         N/A
GARDEN CITY    CLOUDY    63  44  50 S20       29.81F
GREAT BEND     CLOUDY    63  30  29 SE16G23   29.88R
LIBERAL        CLEAR     64  46  52 SE20G26   29.84S
PRATT          PTCLDY    57  32  38 SE13      29.90F
$$

KSZ066>073-081>083-090>101-230600-
SOUTHEAST KANSAS

CITY           SKY/WX    TMP DP  RH WIND       PRES   REMARKS
CHANUTE        PTCLDY    54  37  52 SE3       29.99S
COFFEYVILLE    MOCLDY    54  37  52 CALM      29.98S
HUTCHINSON     CLOUDY    60  32  34 SE12      29.91F
MEDICINE LODGE   N/A     62  33  33 SE12      29.90F
NEWTON         CLOUDY    55  30  38 SE10      29.97F
PARSONS        PTCLDY    52  36  54 E3        29.99F
WICHITA INTL   MOCLDY    61  34  36 SE13      29.94F
WICHITA JABRA  MOCLDY    59  35  40 SE9       29.94F
WICHITA MCCONL MOCLDY    60  34  37 E12       29.94F
WINFIELD       PTCLDY    59  37  44 SE7       29.96F
$$

KSZ007>012-019>026-033>040-048>060-102>105-230600-
NORTHEAST KANSAS

CITY           SKY/WX    TMP DP  RH WIND       PRES   REMARKS
CONCORDIA      MOCLDY    60  32  34 SE16      29.92R
EMPORIA        MOCLDY    55  36  48 SE9       29.98S
LAWRENCE       CLOUDY    55  38  52 E6        30.00S
MANHATTAN      PTCLDY    55  34  45 CALM      29.95F
OLATHE IND     PTCLDY    54  35  48 SE5       30.01S
OLATHE EXE     CLEAR     55  34  45 SE6       29.99F
SALINA         CLOUDY    62  32  32 SE15      29.91F
TOPEKA BILLARD CLEAR     54  37  52 E7        29.99S
TOPEKA FORBES  CLEAR     54  35  48 E7        29.98F
$$



USA.gov is the U.S. government's official web portal to all federal, state and local government web resources and services.